Date_and_time,latitude,longitude,wind_speed,RelWindDirFrom,WindDirFrom,air_pressure,air_temperature,relative_humidity,Temp,platform_speed_wrt_ground,air_pressure_at_mean_sea_level,platform_orientation
2019-03-07 23:40,50.630435,-96.9807766666667,11.0,13.4,184,993.33,-12.9,66,0.58,0.0,1022.71,216.6
2019-03-07 23:50,50.630435,-96.9807766666667,11.3,14.5,185,993.21,-13.1,66,0.60,0.0,1022.58,216.6
2019-03-08 00:00,50.630435,-96.9807766666667,11.0,13.9,183,993.02,-13.3,67,0.61,0.0,1022.39,48.3
2019-03-08 00:10,50.630435,-96.9807766666667,8.9,11.5,180,992.96,-13.5,68,0.61,0.0,1022.35,48.3
2019-03-08 00:20,50.630435,-96.9807766666667,10.4,13.3,182,992.80,-13.7,69,0.62,0.0,1022.19,48.3
2019-03-08 00:30,50.6304366666667,-96.980775,11.6,14.8,180,992.54,-13.8,70,0.63,0.0,1021.94,48.3
2019-03-08 00:40,50.6304366666667,-96.9807733333333,11.0,15.0,182,992.48,-14.0,71,0.62,0.0,1021.90,48.3
2019-03-08 00:50,50.6304366666667,-96.9807733333333,11.0,14.8,182,992.37,-14.1,71,0.62,0.0,1021.81,48.3
2019-03-08 01:00,50.6304366666667,-96.9807733333333,11.7,14.6,183,992.23,-14.3,72,0.62,0.0,1021.70,36.6
2019-03-08 01:10,50.630435,-96.9807883333333,11.9,14.7,181,992.20,-14.5,73,0.62,0.0,1021.67,36.6
2019-03-08 01:20,50.6304383333333,-96.9807833333333,10.9,14.2,182,992.21,-14.7,74,0.60,0.0,1021.71,36.6
2019-03-08 01:30,50.6304216666667,-96.9807816666667,11.0,14.6,184,992.12,-14.9,75,0.60,0.0,1021.62,36.6
2019-03-08 01:40,50.6304433333333,-96.9807666666667,12.0,15.8,184,991.95,-15.0,75,0.60,0.0,1021.47,36.6
2019-03-08 01:50,50.6304466666667,-96.9807733333333,11.7,15.5,183,991.78,-15.2,76,0.60,0.0,1021.31,36.6
2019-03-08 02:00,50.6304466666667,-96.9807666666667,12.7,17.4,184,991.56,-15.2,77,0.59,0.0,1021.10,27.4
2019-03-08 02:10,50.6304466666667,-96.98077,12.8,16.6,181,991.38,-15.4,77,0.58,0.0,1020.94,27.4
2019-03-08 02:20,50.6304433333333,-96.9807716666667,10.9,13.5,180,991.48,-15.6,78,0.57,0.0,1021.06,27.4
2019-03-08 02:30,50.6304416666667,-96.98077,11.2,14.2,179,991.37,-15.8,78,0.57,0.0,1020.96,27.4
2019-03-08 02:40,50.63044,-96.98077,9.3,13.5,180,991.41,-16.0,79,0.58,0.0,1021.03,27.4
2019-03-08 02:50,50.6304383333333,-96.9807716666667,9.1,11.3,177,991.24,-16.2,79,0.59,0.0,1020.87,27.4
2019-03-08 03:00,50.6304383333333,-96.9807733333333,8.8,11.0,180,991.15,-16.3,80,0.59,0.0,1020.80,360.0
2019-03-08 03:10,50.630425,-96.9807783333333,9.8,13.0,180,991.07,-16.3,80,0.58,0.0,1020.73,360.0
2019-03-08 03:20,50.6304266666667,-96.9807766666667,9.1,12.1,177,991.05,-16.4,80,0.57,0.0,1020.72,360.0
2019-03-08 03:30,50.6304266666667,-96.9807733333333,9.4,11.6,177,990.95,-16.5,80,0.57,0.0,1020.63,360.0
2019-03-08 03:40,50.6304266666667,-96.980775,10.1,13.2,176,990.95,-16.5,81,0.57,0.0,1020.64,360.0
2019-03-08 03:50,50.6304233333333,-96.9807916666667,9.9,12.0,177,990.94,-16.6,81,0.56,0.0,1020.64,360.0
2019-03-08 04:00,50.6304283333333,-96.9807933333333,10.3,13.1,179,990.98,-16.6,81,0.56,0.0,1020.69,237.7
2019-03-08 04:10,50.63043,-96.980795,10.4,13.0,183,990.89,-16.5,81,0.56,0.0,1020.61,237.7
2019-03-08 04:20,50.63043,-96.9807916666667,11.2,14.5,183,990.70,-16.5,81,0.56,0.0,1020.42,237.7
2019-03-08 04:30,50.6304616666667,-96.9807783333333,11.9,15.3,182,990.49,-16.6,81,0.56,0.0,1020.22,237.7
2019-03-08 04:40,50.6304183333333,-96.9807583333333,10.9,14.4,182,990.46,-16.6,81,0.56,0.0,1020.21,237.7
2019-03-08 04:50,50.6304266666667,-96.98077,11.7,15.4,182,990.29,-16.7,81,0.56,0.0,1020.04,237.7
2019-03-08 05:00,50.630435,-96.9807816666667,11.4,14.1,182,990.26,-16.7,81,0.56,0.0,1020.01,229.4
2019-03-08 05:10,50.6304333333333,-96.98078,11.3,14.4,181,990.17,-16.8,81,0.57,0.0,1019.93,229.4
2019-03-08 05:20,50.6304333333333,-96.9807783333333,9.6,12.1,181,990.34,-16.8,82,0.57,0.0,1020.11,229.4
2019-03-08 05:30,50.630425,-96.980785,9.4,11.5,179,990.29,-16.8,82,0.58,0.0,1020.06,229.4
2019-03-08 05:40,50.6304366666667,-96.9807733333333,9.0,11.4,179,990.20,-16.8,82,0.58,0.0,1019.98,229.4
2019-03-08 05:50,50.63043,-96.9807683333333,8.2,11.4,182,990.21,-16.8,82,0.56,0.0,1019.98,229.4
2019-03-08 06:00,50.6304316666667,-96.9807683333333,8.4,10.6,183,990.01,-16.8,82,0.56,0.0,1019.78,165.5
2019-03-08 06:10,50.6304316666667,-96.9807683333333,8.7,10.9,181,989.84,-16.9,82,0.56,0.0,1019.60,165.5
2019-03-08 06:20,50.6304316666667,-96.98077,8.0,10.6,176,989.74,-17.0,83,0.56,0.0,1019.51,165.5
2019-03-08 06:30,50.63043,-96.9807733333333,6.7,9.4,177,989.72,-17.1,83,0.56,0.0,1019.49,165.5
2019-03-08 06:40,50.6304083333333,-96.9808166666667,6.1,7.7,178,989.66,-17.2,83,0.56,0.0,1019.44,165.5
2019-03-08 06:50,50.6304216666667,-96.9808083333333,5.7,8.1,177,989.59,-17.2,83,0.56,0.0,1019.37,165.5
2019-03-08 07:00,50.6304266666667,-96.9807833333333,5.7,6.9,175,989.52,-17.3,83,0.56,0.0,1019.31,90.0
2019-03-08 07:10,50.6304316666667,-96.9807783333333,5.0,5.7,178,989.51,-17.3,84,0.56,0.0,1019.30,90.0
2019-03-08 07:20,50.6304333333333,-96.9807816666667,5.6,6.8,146,989.49,-18.5,83,0.57,0.0,1019.35,90.0
2019-03-08 07:30,50.6304316666667,-96.9807816666667,7.2,8.3,145,989.42,-19.6,82,0.57,0.0,1019.34,90.0
2019-03-08 07:40,50.6304333333333,-96.9807816666667,5.2,6.5,162,989.31,-20.2,82,0.56,0.0,1019.26,90.0
2019-03-08 07:50,50.6304333333333,-96.9807816666667,6.0,7.3,169,989.10,-20.2,83,0.56,0.0,1019.05,90.0
2019-03-08 08:00,50.6304333333333,-96.9807816666667,5.7,7.0,169,989.02,-20.1,84,0.56,0.0,1018.97,142.0
2019-03-08 08:10,50.630435,-96.9807816666667,5.7,6.8,174,988.89,-20.0,85,0.57,0.0,1018.84,142.0
2019-03-08 08:20,50.63045,-96.9807666666667,6.0,6.8,180,988.69,-19.7,85,0.58,0.0,1018.61,142.0
2019-03-08 08:30,50.6304416666667,-96.980775,6.8,7.6,180,988.60,-19.5,85,0.59,0.0,1018.52,142.0
2019-03-08 08:40,50.6304433333333,-96.9807766666667,5.8,6.4,180,988.53,-19.5,85,0.60,0.0,1018.45,142.0
2019-03-08 08:50,50.630445,-96.9807783333333,6.6,8.3,179,988.36,-18.8,86,0.60,0.0,1018.24,142.0
2019-03-08 09:00,50.6304466666667,-96.9807783333333,7.1,8.0,176,988.29,-18.6,86,0.60,0.0,1018.15,318.8
2019-03-08 09:10,50.630445,-96.9807766666667,6.5,8.5,179,988.25,-18.0,87,0.60,0.0,1018.15,318.8
2019-03-08 09:20,50.6304416666667,-96.980775,7.2,9.3,183,988.14,-16.8,86,0.60,0.0,1018.02,318.8
2019-03-08 09:30,50.63044,-96.9807766666667,7.9,9.6,189,987.99,-16.4,85,0.59,0.0,1017.89,318.8
2019-03-08 09:40,50.6304316666667,-96.98077,7.0,8.5,189,987.88,-16.2,85,0.59,0.0,1017.76,318.8
2019-03-08 09:50,50.6304233333333,-96.9807816666667,6.3,8.1,180,987.82,-16.3,85,0.60,0.0,1017.70,318.8
2019-03-08 10:00,50.6304266666667,-96.980785,5.4,6.2,170,987.83,-16.6,85,0.60,0.0,1017.72,0.0
2019-03-08 10:10,50.6304283333333,-96.9808033333333,5.2,6.4,166,987.80,-16.5,85,0.61,0.0,1017.67,0.0
2019-03-08 10:20,50.6304216666667,-96.980785,5.8,6.4,168,987.71,-16.6,85,0.61,0.0,1017.56,0.0
2019-03-08 10:30,50.6304166666667,-96.98077,6.3,7.1,166,987.71,-16.9,85,0.59,0.0,1017.58,0.0
2019-03-08 10:40,50.63043,-96.98077,6.3,7.7,175,987.61,-16.8,86,0.59,0.0,1017.44,0.0
2019-03-08 10:50,50.6304316666667,-96.9807733333333,5.9,7.1,174,987.57,-16.7,85,0.60,0.0,1017.37,0.0
2019-03-08 11:00,50.630425,-96.9807483333333,6.1,7.9,173,987.55,-16.5,85,0.61,0.0,1017.31,103.7
2019-03-08 11:10,50.6304366666667,-96.98077,6.1,8.3,172,987.53,-16.3,85,0.62,0.0,1017.20,103.7
2019-03-08 11:20,50.6304383333333,-96.9807683333333,7.0,8.7,173,987.48,-16.2,85,0.61,0.0,1017.13,103.7
2019-03-08 11:30,50.6304366666667,-96.98077,7.4,9.3,174,987.42,-16.0,85,0.60,0.0,1017.03,103.7
2019-03-08 11:40,50.630435,-96.9807683333333,7.7,9.8,172,987.38,-15.8,84,0.60,0.0,1016.99,103.7
2019-03-08 11:50,50.6304433333333,-96.9807716666667,6.7,8.4,174,987.42,-15.8,84,0.60,0.0,1017.05,103.7
2019-03-08 12:00,50.630445,-96.9807733333333,6.3,8.5,170,987.42,-15.9,85,0.61,0.0,1017.05,125.3
2019-03-08 12:10,50.630415,-96.980775,5.2,6.5,164,987.45,-15.9,85,0.60,0.0,1017.09,125.3
2019-03-08 12:20,50.6304683333333,-96.98079,4.4,5.6,172,987.48,-16.1,86,0.59,0.0,1017.14,125.3
2019-03-08 12:30,50.6304216666667,-96.9807783333333,5.5,8.1,177,987.43,-15.6,87,0.59,0.0,1017.06,125.3
2019-03-08 12:40,50.63042,-96.9807783333333,7.0,8.4,180,987.37,-14.6,86,0.59,0.0,1016.93,125.3
2019-03-08 12:50,50.630455,-96.9807683333333,7.2,10.2,184,987.41,-14.1,86,0.60,0.0,1016.94,125.3
2019-03-08 13:00,50.6304483333333,-96.9807666666667,7.3,9.4,179,987.43,-13.9,86,0.58,0.0,1016.93,27.4
2019-03-08 13:10,50.6304466666667,-96.9807633333333,7.0,8.7,179,987.43,-13.7,86,0.57,0.0,1016.91,27.4
2019-03-08 13:20,50.6304466666667,-96.980765,7.9,10.2,182,987.43,-13.4,86,0.56,0.0,1016.88,27.4
2019-03-08 13:30,50.6304466666667,-96.980765,8.1,10.5,175,987.37,-13.2,86,0.56,0.0,1016.80,27.4
2019-03-08 13:40,50.630445,-96.980765,8.1,10.2,179,987.34,-13.0,86,0.56,0.0,1016.76,27.4
2019-03-08 13:50,50.630455,-96.9807733333333,8.8,12.4,178,987.16,-12.8,85,0.56,0.0,1016.57,27.4
2019-03-08 14:00,50.6304616666667,-96.9807583333333,9.9,12.1,181,987.19,-12.6,85,0.56,0.0,1016.59,355.3
2019-03-08 14:10,50.630455,-96.98076,10.9,14.7,180,987.15,-12.4,85,0.56,0.0,1016.54,355.3
2019-03-08 14:20,50.6304566666667,-96.9807616666667,12.0,15.2,178,987.02,-12.2,85,0.57,0.0,1016.37,355.3
2019-03-08 14:30,50.630455,-96.9807633333333,10.6,13.1,188,987.14,-12.0,84,0.58,0.0,1016.43,355.3
2019-03-08 14:40,50.6304533333333,-96.9807633333333,9.6,12.9,187,987.30,-11.9,83,0.58,0.0,1016.56,355.3
2019-03-08 14:50,50.6304533333333,-96.980765,10.0,13.3,180,987.24,-11.7,83,0.59,0.0,1016.47,355.3
2019-03-08 15:00,50.6304516666667,-96.980765,10.9,14.4,178,987.18,-11.7,83,0.59,0.0,1016.39,360.0
2019-03-08 15:10,50.630415,-96.980765,10.6,13.5,155,986.82,-11.5,83,0.60,0.0,1016.00,360.0
2019-03-08 15:20,50.6304533333333,-96.9807816666667,12.5,15.9,169,986.91,-11.2,83,0.60,0.0,1016.06,360.0
2019-03-08 15:30,50.63042,-96.9807733333333,9.8,12.9,178,986.92,-10.9,81,0.61,0.0,1016.04,360.0
2019-03-08 15:40,50.63043,-96.980775,8.6,11.0,181,987.09,-10.6,80,0.60,0.0,1016.20,360.0
2019-03-08 15:50,50.6304283333333,-96.9807766666667,8.9,12.7,183,987.03,-10.3,80,0.59,0.0,1016.11,360.0
2019-03-08 16:00,50.6304283333333,-96.9807766666667,9.0,12.0,186,986.96,-10.2,80,0.59,0.0,1016.01,360.0
2019-03-08 16:10,50.6304366666667,-96.9807866666667,10.0,12.9,182,986.81,-10.0,80,0.59,0.0,1015.84,360.0
2019-03-08 16:20,50.630445,-96.9807833333333,11.1,14.3,186,986.85,-9.8,80,0.59,0.0,1015.85,360.0
2019-03-08 16:30,50.6304466666667,-96.980775,12.6,16.1,185,986.81,-9.6,80,0.58,0.0,1015.80,360.0
2019-03-08 16:40,50.6304466666667,-96.9807766666667,11.1,14.7,189,986.81,-9.6,80,0.56,0.0,1015.79,360.0
2019-03-08 16:50,50.6304466666667,-96.980775,11.3,16.7,189,986.80,-9.6,80,0.57,0.0,1015.77,360.0
2019-03-08 17:00,50.6304233333333,-96.9807833333333,13.3,19.4,185,986.70,-9.6,82,0.59,0.0,1015.67,204.4
2019-03-08 17:10,50.63043,-96.9807866666667,12.8,16.8,183,986.65,-9.6,83,0.61,0.0,1015.60,204.4
2019-03-08 17:20,50.6304316666667,-96.9807883333333,12.1,15.3,182,986.64,-9.5,83,0.61,0.0,1015.56,204.4
2019-03-08 17:30,50.63043,-96.9807883333333,12.0,15.8,187,986.65,-9.4,83,0.61,0.0,1015.54,204.4
2019-03-08 17:40,50.63042,-96.9807766666667,11.3,15.3,187,986.54,-9.4,83,0.61,0.0,1015.42,204.4
2019-03-08 17:50,50.63043,-96.9807733333333,10.7,13.4,186,986.52,-9.3,82,0.61,0.0,1015.39,204.4
2019-03-08 18:00,50.6304266666667,-96.9807716666667,10.3,13.2,179,986.54,-9.2,83,0.61,0.0,1015.40,360.0
2019-03-08 18:10,50.630385,-96.9807683333333,10.8,15.2,178,986.51,-9.1,83,0.63,0.0,1015.34,360.0
2019-03-08 18:20,50.6304066666667,-96.9807966666667,10.5,14.3,185,986.53,-8.9,83,0.63,0.0,1015.35,360.0
2019-03-08 18:30,50.6304066666667,-96.980775,10.5,13.2,187,986.54,-8.7,83,0.64,0.0,1015.34,360.0
2019-03-08 18:40,50.6304083333333,-96.98078,10.3,14.7,184,986.51,-8.7,84,0.65,0.0,1015.31,360.0
2019-03-08 18:50,50.6304216666667,-96.980765,11.6,14.4,178,986.41,-8.8,85,0.65,0.0,1015.21,360.0
2019-03-08 19:00,50.6304083333333,-96.9807733333333,10.2,14.2,183,986.35,-8.6,85,0.63,0.0,1015.14,161.1
2019-03-08 19:10,50.630425,-96.98078,10.6,13.5,183,986.33,-8.5,85,0.62,0.0,1015.10,161.1
2019-03-08 19:20,50.6304283333333,-96.98079,12.9,16.1,180,986.27,-8.4,85,0.63,0.0,1015.04,161.1
2019-03-08 19:30,50.630405,-96.98078,12.7,17.5,178,986.29,-8.4,85,0.63,0.0,1015.06,161.1
2019-03-08 19:40,50.6304216666667,-96.9807866666667,14.3,17.7,182,986.19,-8.3,85,0.63,0.0,1014.95,161.1
2019-03-08 19:50,50.6304316666667,-96.980785,13.6,17.6,183,986.19,-8.2,86,0.62,0.0,1014.94,161.1
2019-03-08 20:00,50.6304316666667,-96.9807783333333,14.1,17.7,185,986.14,-8.0,86,0.60,0.0,1014.86,38.0
2019-03-08 20:10,50.6303866666667,-96.9807716666667,12.1,16.1,183,986.09,-7.7,87,0.60,0.0,1014.78,38.0
2019-03-08 20:20,50.63042,-96.9807866666667,12.6,17.6,176,985.92,-7.6,87,0.60,0.0,1014.60,38.0
2019-03-08 20:30,50.6304266666667,-96.9807866666667,15.4,19.5,173,985.79,-7.7,88,0.62,0.0,1014.46,38.0
2019-03-08 20:40,50.6304283333333,-96.9807883333333,13.3,17.7,177,985.81,-7.6,87,0.63,0.0,1014.49,38.0
2019-03-08 20:50,50.630425,-96.9807833333333,11.5,14.5,183,985.85,-7.4,86,0.64,0.0,1014.50,38.0
2019-03-08 21:00,50.6304283333333,-96.9807766666667,11.6,21.0,186,985.82,-7.2,84,0.63,0.0,1014.46,0.0
2019-03-08 21:10,50.63043,-96.9807766666667,15.7,19.6,185,985.71,-7.2,82,0.64,0.0,1014.34,0.0
2019-03-08 21:20,50.63043,-96.9807783333333,15.0,18.7,177,985.62,-7.3,83,0.65,0.0,1014.25,0.0
2019-03-08 21:30,50.63043,-96.9807783333333,13.9,16.9,178,985.59,-7.2,82,0.63,0.0,1014.21,0.0
2019-03-08 21:40,50.6304283333333,-96.9807783333333,14.0,18.0,187,985.55,-7.0,80,0.61,0.0,1014.15,0.0
2019-03-08 21:50,50.6304283333333,-96.98078,15.4,21.4,181,985.41,-6.8,80,0.62,0.0,1013.99,0.0
2019-03-08 22:00,50.6304283333333,-96.9807816666667,15.4,21.3,183,985.37,-6.8,80,0.64,0.0,1013.94,327.5
2019-03-08 22:10,50.6304266666667,-96.9807816666667,15.8,19.7,178,985.32,-6.8,80,0.66,0.0,1013.88,327.5
2019-03-08 22:20,50.6304466666667,-96.9807833333333,16.5,20.8,174,985.29,-6.8,80,0.67,0.0,1013.85,327.5
2019-03-08 22:30,50.63044,-96.9807766666667,13.7,19.2,182,985.38,-6.8,80,0.67,0.0,1013.93,327.5
2019-03-08 22:40,50.63042,-96.98079,14.9,18.7,181,985.29,-6.7,79,0.64,0.0,1013.83,327.5
2019-03-08 22:50,50.63042,-96.9807866666667,13.9,18.1,183,985.28,-6.6,79,0.63,0.0,1013.80,327.5
2019-03-08 23:00,50.630425,-96.9807816666667,13.1,17.6,182,985.16,-7.0,80,0.63,0.0,1013.70,142.0
2019-03-08 23:10,50.6304266666667,-96.9807783333333,10.9,13.4,184,985.21,-7.1,80,0.64,0.0,1013.76,142.0
2019-03-08 23:20,50.63045,-96.9807816666667,11.2,14.2,182,985.16,-7.1,81,0.64,0.0,1013.71,142.0
2019-03-08 23:30,50.6304383333333,-96.9807683333333,9.5,12.8,182,985.09,-7.2,81,0.64,0.0,1013.63,142.0
2019-03-08 23:40,50.63044,-96.9807683333333,9.0,11.0,177,985.13,-7.4,81,0.66,0.0,1013.67,142.0
